Location: *
(43.0671°S, 179.6631°W)
Time: 02:59:24
(UTC+00:00)

Daily predictions for brighter satellites

Satellite Brightness Start Highest point End
(mag) Time Altitude Azimuth Time Altitude Azimuth Time Altitude Azimuth
Cosmos 1656 4.5 04:58:06 10° SSW 05:03:47 61° WNW 05:09:23 10° N
SJ-12 4.0 05:00:19 10° SSE 05:04:33 80° ENE 05:08:42 10° N
USA 305 3.3 05:01:48 10° SW 05:05:50 42° SSE 05:09:51 10° E
Cosmos 1953 Rocket 4.3 05:02:07 10° NNW 05:06:27 57° W 05:10:50 10° S
CZ-2C R/B 3.9 05:01:50 10° N 05:07:15 49° W 05:12:39 10° SSW
SeaSat 1 3.6 05:02:42 10° SSE 05:07:21 41° SW 05:11:58 10° NW
Cosmos 1727 Rocket 4.0 05:02:17 10° N 05:08:32 78° E 05:14:49 10° S
Cosmos 192 4.4 05:04:33 10° NNW 05:09:30 87° WSW 05:14:33 10° SSE
Lacrosse 5 rocket 3.5 05:08:16 10° SSW 05:09:45 12° S 05:11:13 10° SSE
Cosmos 1933 3.8 05:06:04 10° S 05:09:57 40° ESE 05:13:48 10° NNE
Cosmos 1939 Rocket 3.8 05:08:20 10° SE 05:11:42 27° E 05:15:01 10° NNE
Cosmos 1076 Rocket 3.6 05:13:36 10° N 05:17:55 63° E 05:22:17 10° SSE
BREEZE-M DEB (TANK) 2.9 05:12:01 10° WSW 05:21:33 88° NNW 05:24:51 10° ENE
Meteor 2-3 Rocket 3.7 05:16:43 10° N 05:22:17 68° E 05:27:58 10° SSE
Cosmos 1802 Rocket 4.3 05:16:15 10° S 05:22:32 49° ESE 05:28:45 10° NNE
Cosmos 1459 Rocket 4.0 05:17:33 10° S 05:23:44 60° E 05:29:56 10° NNE
Cosmos 968 Rocket 3.8 05:22:15 10° SSW 05:27:35 77° WNW 05:32:50 10° NNE
USA 281 4.2 05:22:23 10° SE 05:27:48 26° ENE 05:33:09 10° NNE
ATLAS 2AS CENTAUR R/B 3.2 05:21:33 10° SW 05:28:38 72° WNW 05:36:09 10° NNE
CZ-4B R/B 4.1 05:27:51 10° SSE 05:32:21 89° E 05:36:40 10° NNW
Cosmos 1812 3.1 05:29:36 10° S 05:33:18 40° ESE 05:36:55 10° NNE
Cosmos 2221 3.6 05:29:31 10° SSW 05:33:51 51° W 05:38:07 10° NNW
Cosmos 2100 Rocket 4.0 05:30:01 10° S 05:36:23 82° E 05:42:37 10° N
CZ-4B R/B 3.9 05:34:47 13° SE 05:37:20 25° E 05:40:36 10° NNE
Cosmos 1503 Rocket 4.5 05:32:47 10° S 05:37:39 37° ESE 05:42:28 10° NE
SJ 16-02 2.7 05:34:25 10° SSE 05:37:40 19° ESE 05:39:38 15° E
Cosmos 1842 Rocket 4.2 05:33:29 10° SSW 05:37:56 61° W 05:42:16 10° N
CZ-2C R/B 3.6 05:33:14 10° S 05:37:59 56° WSW 05:42:51 10° NNW
Cosmos 1980 Rocket 2.1 05:35:38 10° SSW 05:41:17 68° ESE 05:46:52 10° NNE
CZ-4C R/B 3.9 05:41:24 10° NE 05:44:04 24° ESE 05:46:49 10° SSE
DMSP B5D2-2 4.5 05:40:11 10° N 05:45:26 70° WNW 05:50:44 10° SSW
DELTA 2 R/B (1) 4.2 05:42:08 10° WNW 05:47:31 47° NNE 05:51:36 17° E
Meteor 1-26 Rocket 4.4 05:41:28 10° S 05:47:37 86° E 05:53:36 10° N
USA 306 2.8 05:43:48 10° SW 05:48:03 77° SE 05:52:10 10° ENE
Aureole 1 Rocket 3.9 05:42:28 10° SSW 05:49:41 78° ESE 05:55:09 10° NNE
Cosmos 2322 Rocket 3.5 05:46:24 10° S 05:50:29 19° SE 05:51:23 19° ESE
RESURS DK-1 2.3 05:47:56 10° SSW 05:52:08 68° ESE 05:56:16 10° NE
USA 307 2.8 05:49:06 10° SW 05:53:21 73° SE 05:56:49 15° ENE
Cosmos 2082 Rocket 2.2 05:47:49 10° NNW 05:53:28 87° WSW 05:59:10 10° SSE
Cosmos 2369 3.8 05:51:06 10° SSW 05:56:52 81° WNW 06:02:32 10° NNE
Cosmos 1697 Rocket 3.9 05:53:30 10° SW 05:58:54 45° WNW 06:04:15 10° N
USA 215 3.3 05:54:00 10° ENE 06:00:30 64° SE 06:07:03 10° SW
H-2A R/B 2.2 05:55:57 10° SSE 06:00:47 47° E 06:05:33 10° N
Cosmos 2333 Rocket 4.3 05:59:55 10° SSE 05:59:59 10° SSE 05:59:59 10° SSE
Cosmos 2123 Rocket 4.0 05:55:24 10° N 06:01:45 80° E 06:08:10 10° S
ERBS 3.3 06:00:38 10° SSW 06:03:04 27° SSE 06:03:04 27° SSE
Cosmos 1862 3.3 06:00:06 10° N 06:04:00 57° E 06:07:13 15° SSE
Cosmos 1766 Rocket 4.3 06:00:17 10° NNE 06:04:07 31° E 06:04:50 29° ESE
Lacrosse 5 3.1 06:01:21 10° SSW 06:05:34 25° SSE 06:06:46 23° SE
Cosmos 2061 Rocket 4.0 05:59:26 10° S 06:05:54 74° E 06:12:11 10° NNE
Cosmos 1725 Rocket 3.9 05:59:55 10° S 06:06:16 77° E 06:12:33 10° NNE
CZ-2C R/B 2.8 06:03:43 10° NW 06:06:50 23° N 06:08:37 17° NE
ADEOS 3.5 06:05:43 10° SSE 06:11:03 89° ENE 06:16:20 10° NNW
CORIOLIS 4.3 06:05:41 10° SSE 06:11:06 53° E 06:16:26 10° N
FengYun 1-2 T 4.2 06:05:37 10° SSE 06:11:15 87° WSW 06:16:47 10° NNW
NOAA 12 4.3 06:06:22 10° S 06:11:44 75° WSW 06:17:00 10° NNW
Cosmos 2084 3.6 06:09:25 10° NNW 06:14:14 79° NE 06:16:41 29° SE
Cosmos 2151 4.4 06:12:32 10° NNW 06:16:37 39° WSW 06:20:45 10° S
Cosmos 967 Rocket 4.5 06:12:14 10° NW 06:18:30 82° WSW 06:23:15 19° SSE
IRIDIUM 103 4.5 06:17:54 10° NNE 06:22:56 49° E 06:27:48 11° SSE
USA 308 3.1 06:20:02 10° WSW 06:24:14 67° NW 06:26:33 25° NE
AQUARIUS 4.0 06:25:01 20° SSE 06:28:09 79° ENE 06:32:40 10° N
SL-16 R/B 2.4 06:26:41 10° SSW 06:32:14 48° ESE 06:33:22 42° E
NOAA 6 3.9 06:29:17 20° SSE 06:32:53 72° ENE 06:38:02 10° N
GEOS 3 Rocket 4.2 06:38:59 37° NE 06:38:59 37° NE 06:43:31 10° N
Cosmos 1777 Rocket 3.9 06:35:01 10° SSW 06:40:18 68° ESE 06:42:24 36° NE
IRIDIUM 106 4.2 06:35:58 10° N 06:41:11 71° E 06:45:56 13° S
USA 305 4.2 06:41:29 10° WSW 06:45:22 36° NW 06:47:34 21° N
Cosmos 1354 Rocket 4.3 06:41:16 10° SSW 06:46:33 69° WNW 06:51:45 10° N
SMAP 3.7 06:44:40 13° S 06:48:52 56° WSW 06:53:26 10° NNW
Lacrosse 5 rocket 3.4 06:46:51 10° SSW 06:48:05 16° SSW 06:48:05 16° SSW
Cosmos 2360 Rocket 3.6 06:48:34 10° S 06:51:15 24° SSE 06:51:15 24° SSE
Cosmos 2278 4.4 06:49:00 10° SSW 06:54:31 52° WNW 07:00:00 10° N
Cosmos 2233 Rocket 4.2 06:48:21 10° SSW 06:54:39 70° W 07:00:55 10° N
Cosmos 1447 Rocket 4.4 06:49:01 10° N 06:55:12 89° W 07:01:28 10° S
Cosmos 1151 Rocket 3.6 06:51:10 10° SSW 06:55:32 56° W 06:59:49 10° N
Meteor 1-10 Rocket 4.3 06:53:01 10° SSW 06:58:45 75° W 07:04:19 10° N
CZ-4B DEB 4.0 06:59:36 72° ESE 06:59:58 75° ENE 07:05:26 10° N
ATLAS 5 CENTAUR R/B 4.1 06:56:09 10° N 06:59:38 23° NNE 06:59:38 23° NNE
SL-8 R/B 3.8 06:58:35 10° WNW 07:03:00 74° W 07:03:00 74° W
Meteor 1-27 Rocket 3.7 07:00:00 10° S 07:04:59 68° SSE 07:04:59 68° SSE
USA 281 3.6 07:08:10 22° SSE 07:12:41 63° WSW 07:19:10 10° NW
ARGOS 3.3 07:12:25 48° S 07:13:53 71° WSW 07:19:14 10° NNW
SJ 16-02 2.4 07:12:12 10° SSW 07:16:26 44° WNW 07:16:45 43° WNW
ATLAS CENTAUR R/B 4.4 07:13:40 10° NNW 07:14:22 13° NNW 07:14:22 13° NNW
DELTA 2 R/B (1) 4.3 07:28:05 10° W 07:32:22 48° NW 07:32:22 48° NW
Cosmos 2322 Rocket 3.1 07:29:27 10° SSW 07:33:15 43° SW 07:33:15 43° SW
H-2A R/B 4.2 07:36:08 10° SSW 07:39:53 22° WSW 07:43:34 10° WNW
USA 215 4.2 07:41:10 30° N 07:43:40 41° NW 07:49:53 10° WSW
Cosmos 2333 Rocket 4.4 07:41:07 10° SSW 07:42:01 15° SSW 07:42:01 15° SSW
Lacrosse 5 3.9 07:44:03 10° SW 07:45:59 23° SW 07:45:59 23° SW
SL-16 R/B 4.1 08:11:22 10° SW 08:15:20 26° W 08:15:20 26° W
